EHI
0 0 0 0 0 0 0 0 0 0 0 0 0 0 0 0 0 0 0 0 0 0 0 0 0 0 0 0 0 0 0 0 0 0 0 0 0 0 0 0 0 0 0 0 0 0 0 0 0
0 0 0 0 0 0 0 0 0 0 0 0 0 0 0 0 0 0 0 0 0 0 0 0 0 0 0 0 0 0 0 0 0 0 0 0 0 0 0 0 0 0 0 0 0 0 0 0 0
0 0 0 0 0 0 0 0 0 0 0 0 0 0 0 0 0 0 0 0 0 0 0 0 0 0 0 0 0 0 0 0 0 0 0 0 0 0 0 0 0 0 0 0 0 0 0 0 0
0 0 0 0 0 0 0 0 0 0 0 0 0 0 0 0 0 0 0 0 0 0 0 0 0 0 0 0 0 0 0 0 0 0 0 0 0 0 0 0 0 0 0 0 0 0 0 0 0
0 0 0 0 0 0 0 0 0 0 0 0 0 0 0 0 0 0 0 0 0 0 0 0 0 0 0 0 0 0 0 0 0 0 0 0 0 0 0 0 0 0 0 0 0 0 0 0 0
0 0 0 0 0 0 0 0 0 0 0 0 0 0 0 0 0 0 0 0 0 0 0 0 0 0 0 0 0 0 0 0 0 0 0 0 0 0 0 0 0 0 0 0 0 0 0 0 0
0 0 0 0 0 0 0 0 0 0 0 0 0 0 0 0 0 0 0 0 0 0 0 0 0 0 0 0 0 0 0 0 0 0 0 0 0 0 0 0 0 0 0 0 0 0 0 0 0
0 0 0 0 0 0 0 0 0 0 0 0 0 0 0 0 0 0 0 0 0 0 0 0 0 0 0 0 0 0 0 0 0 0 0 0 0 0 0 0 0 0 0 0 0 0 0 0 0
0 0 0 0 0 0 0 0 0 0 0 0 0 0 0 0 0 0 0 0 0 0 0 0 0 0 0 0 0 0 0 0 0 0 0 0 0 0 0 0 0 0 0 0 0 0 0 0 0
0 0 0 0 0 0 0 0 0 0 0 0 0 0 0 0 0 0 0 0 0 0 0 0 0 0 0 0 0 0 0 0 0 0 0 0 0 0 0 0 0 0 0 0 0 0 0 0 0
0 0 0 0 0 0 0 0 0 0 0 0 0 0 0 0 0 0 0 0 0 0 0 0 0 0 0 0 0 0 0 0 0 0 0 0 0 0 0 0 0 0 0 0 0 0 0 0 0
0 0 0 0 0 0 0 0 0 0 0 0 0 0 0 0 0 0 0 0 0 0 0 0 0 0 0 0 0 0 0 0 0 0 0 0 0 0 0 0 0 0 0 0 0 0 0 0 0
0 0 0 0 0 0 0 0 0 0 0 0 0 0 0 0 0 0 0 0 0 0 0 0 0 0 0 0 0 0 0 0 0 0 0 0 0 0 0 0 0 0 0 0 0 0 0 0 0
0 0 0 0 0 0 0 0 0 0 0 0 0 0 0 0 0 0 0 0 0 0 0 0 0 0 0 0 0 0 0 0 0 0 0 0 0 0 0 0 0 0 0 0 0 0 0 0 0
0 0 0 0 0 0 0 0 0 0 0 0 0 0 0 0 0 0 0 0 0 0 0 0 0 0 0 0 0 0 0 0 0 0 0 0 0 0 0 0 0 0 0 0 0 0 0 0 0
0 0 0 0 0 0 0 0 0 0 0 0 0 0 0 0 0 0 0 0 0 0 0 0 0 0 0 0 0 0 0 0 0 0 0 0 0 0 0 0 0 0 0 0 0 0 0 0 0
0 0 0 0 0 0 0 0 0 0 0 0 0 0 0 0 0 0 0 0 0 0 0 0 0 0 0 0 0 0 0 0 0 0 0 0 0 0 0 0 0 0 0 0 0 0 0 0 0
0 0 0 0 0 0 0 0 0 0 0 0 0 0 0 0 0 0 0 0 0 0 0 0 0 0 0 0 0 0 0 0 0 0 0 0 0 0 0 0 0 0 0 0 0 0 0 0 0
0 0 0 0 0 0 0 0 0 0 0 0 0 0 0 0 0 0 0 0 0 0 0 0 0 0 0 0 0 0 0 0 0 0 0 0 0 0 0 0 0 0 0 0 0 0 0 0 0
0 0 0 0 0 0 0 0 0 0 0 0 0 0 0 0 0 0 0 0 0 0 0 0 0 0 0 0 0 0 0 0 0 0 0 0 0 0 0 0 0 0 0 0 0 0 0 0 0
0 0 0 0 0 0 0 0 0 0 0 0 0 0 0 0 0 0 0 0 0 0 0 0 0 0 0 0 0 0 0 0 0 0 0 0 0 0 0 0 0 0 0 0 0 0 0 0 0
0 0 0 0 0 0 0 0 0 0 0 0 0 0 0 0 0 0 0 0 0 0 0 0 0 0 0 0 0 0 0 0 0 0 0 0 0 0 0 0 0 0 0 0 0 0 0 0 0
0 0 0 0 0 0 0 0 0 0 0 0 0 0 0 0 0 0 0 0 0 0 0 0 0 0 0 0 0 0 0 0 0 0 0 0 0 0 0 0 0 0 0 0 0 0 0 0 0
0 0 0 0 0 0 0 0 0 0 0 0 0 0 0 0 0 0 0 0 0 0 0 0 0 0 0 0 0 0 0 0 0 0 0 0 0 0 0 0 0 0 0 0 0 0 0 0 0
0 0 0 0 0 0 0 0 0 0 0 0 0 0 0 0 0 0 0 0 0 0 0 0 0 0 0 0 0 0 0 0 0 0 0 0 0 0 0 0 0 0 0 0 0 0 0 0 0
0 0 0 0 0 0 0 0 0 0 0 0 0 0 0 0 0 0 0 0 0 0 0 0 0 0 0 0 0 0 0 0 0 0 0 0 0 0 0 0 0 0 0 0 0 0 0 0 0
0 0 0 0 0 0 0 0 0 0 0 0 0 0 0 0 0 0 0 0 0 0 0 0 0 0 0 0 0 0 0 0 0 0 0 0 0 0 0 0 0 0 0 0 0 0 0 0 0
0 0 0 0 0 0 0 0 0 0 0 0 0 0 0 0 0 0 0 0 0 0 0 0 0 0 0 0 0 0 0 0 0 0 0 0 0 0 0 0 0 0 0 0 0 0 0 0 0
0 0 0 0 0 0 0 0 0 0 0 0 0 0 0 0 0 0 0 0 0 0 0 0 0 0 0 0 0 0 0 0 0 0 0 0 0 0 0 0 0 0 0 0 0 0 0 0 0
0 0 0 0 0 0 0 0 0 0 0 0 0 0 0 0 0 0 0 0 0 0 0 0 0 0 0 0 0 0 0 0 0 0 0 0 0 0 0 0 0 0 0 0 0 0 0 0 0
Wind_Speed
6 4 4 6 11 12 7 4 3 4 5 2 2 7 8 7 7 7 1 10 13 13 14 17 25 25 25 26 26 26 26 26 26 26 26 26 27 27 27 27 27 27 26 26 26 26 26 26 25
3 5 9 9 10 8 5 4 5 4 6 4 4 6 7 7 5 5 5 10 11 11 12 16 24 25 25 26 26 26 26 26 26 26 25 26 27 27 27 28 27 27 26 26 25 26 26 26 26
6 10 10 10 9 5 5 4 4 5 4 3 5 6 6 5 4 4 6 8 7 9 12 17 25 25 25 25 25 25 26 26 26 25 25 26 27 27 27 27 28 27 27 26 26 26 26 26 26
7 9 11 12 11 4 3 1 2 6 5 6 6 6 5 5 4 4 5 5 6 8 11 16 25 24 24 24 25 25 25 25 24 24 25 25 26 26 26 27 27 27 27 26 26 26 26 26 26
7 9 12 9 6 4 4 4 3 4 4 5 6 6 4 3 4 4 2 4 7 8 10 15 24 24 24 24 25 25 25 25 25 25 25 25 26 26 26 26 26 26 26 26 27 27 27 26 25
8 8 10 6 5 3 2 3 3 5 5 5 6 5 2 1 2 2 3 5 7 8 9 13 23 24 24 23 25 25 25 24 24 24 25 26 26 26 26 26 26 26 26 26 27 27 27 26 26
8 9 8 8 6 4 3 3 4 4 4 2 5 6 4 2 1 1 4 5 6 7 10 11 12 15 20 22 23 25 24 24 23 24 25 25 26 26 26 27 26 26 26 26 26 26 27 27 26
7 10 8 5 6 4 3 3 3 2 3 2 4 8 5 4 3 2 2 4 6 7 8 9 9 9 10 11 20 24 23 23 22 22 23 24 24 24 25 24 25 25 26 26 26 26 26 26 25
6 10 5 5 7 6 5 5 3 2 5 4 3 4 5 6 3 0 1 5 7 9 6 7 8 8 10 9 15 16 18 19 18 16 21 18 10 10 13 21 24 25 25 25 26 26 25 25 23
9 7 4 1 7 8 5 5 7 4 5 4 3 3 4 4 2 2 6 8 9 9 7 6 7 8 8 9 7 6 8 9 9 8 10 8 8 9 13 19 23 24 24 24 25 25 22 18 11
9 7 4 4 5 7 6 5 5 8 3 6 7 7 5 4 3 5 6 6 6 6 6 5 6 6 7 6 6 4 5 5 7 8 9 8 6 6 7 6 9 11 15 11 15 14 10 10 11
9 6 5 4 4 5 5 5 4 2 3 6 8 7 6 5 5 5 5 4 4 5 6 5 6 7 7 6 5 4 5 5 5 7 8 7 5 6 7 6 6 6 6 9 9 8 11 12 12
7 5 5 7 10 7 6 5 4 2 3 7 6 6 6 6 4 4 4 3 4 5 6 6 6 8 7 6 6 6 5 5 6 6 6 7 6 6 7 6 6 6 6 7 8 9 11 12 12
6 8 6 6 6 4 6 4 4 3 4 6 6 5 5 5 4 3 2 2 3 4 7 8 6 7 7 6 6 5 5 5 5 5 7 8 7 7 7 7 6 6 7 8 8 10 10 10 10
6 7 5 3 3 3 5 2 5 7 7 6 5 5 4 4 4 3 1 1 3 5 6 7 6 7 7 6 6 6 5 5 5 5 6 8 8 7 7 7 6 7 8 9 8 9 7 9 10
5 5 2 1 3 3 2 5 5 8 9 7 6 5 4 4 3 3 2 1 4 5 5 6 7 7 6 6 6 5 5 5 5 5 5 7 8 8 7 7 6 7 7 7 9 7 9 9 10
3 2 1 2 4 4 4 6 4 8 9 8 7 6 5 4 4 3 2 3 4 4 5 6 6 6 7 7 6 6 5 5 5 5 5 6 8 8 7 6 5 8 7 7 9 8 9 10 11
2 2 2 3 5 6 6 7 4 8 9 9 8 7 6 6 5 3 2 2 2 3 4 5 6 6 6 5 5 4 5 5 4 5 5 8 7 9 8 6 6 8 6 6 7 9 9 8 10
3 3 2 2 5 6 9 8 6 7 8 8 8 8 8 7 4 3 2 1 2 4 5 5 6 6 6 5 6 6 6 6 5 5 7 8 8 9 8 7 7 7 6 8 9 8 10 8 8
4 2 1 1 3 4 5 8 5 7 8 8 9 9 8 5 4 4 3 2 2 4 5 6 6 7 6 5 5 5 6 4 5 6 7 8 9 9 10 8 8 8 7 7 8 9 7 8 6
1 2 2 2 2 1 4 8 3 4 4 5 6 6 6 7 7 5 3 2 2 4 5 6 7 7 7 7 5 7 4 4 4 6 5 7 10 10 9 9 9 9 7 7 7 8 8 9 7
1 1 1 2 1 4 1 7 5 4 4 7 8 7 7 6 5 3 2 1 2 4 5 5 6 7 7 6 6 8 8 8 8 6 7 9 9 10 10 9 10 9 8 8 8 7 7 9 9
1 1 1 2 1 3 1 2 9 1 7 10 9 8 7 6 5 3 1 2 3 4 4 5 6 6 7 7 7 7 6 6 7 8 8 8 7 9 11 11 9 9 9 9 9 9 8 7 8
0 4 4 4 4 3 3 4 10 5 8 7 8 9 8 7 5 3 3 3 3 4 4 5 7 7 7 8 7 7 8 9 11 11 9 8 7 7 8 12 9 10 10 10 10 9 8 8 9
4 4 6 6 4 4 1 3 12 5 6 5 7 10 8 7 5 2 2 2 3 5 6 6 7 8 8 8 8 8 8 7 9 11 11 11 9 9 10 11 9 10 11 12 11 9 9 8 9
2 3 4 3 5 7 2 7 9 1 0 1 3 6 7 6 4 3 2 1 3 5 6 7 7 8 8 8 8 7 7 6 7 9 10 10 9 10 12 12 13 14 14 14 11 10 10 8 7
2 3 2 4 1 5 8 9 9 2 1 1 3 6 7 6 6 5 2 0 3 5 5 6 7 8 8 8 8 7 7 8 9 10 9 8 9 11 13 15 15 16 16 15 13 10 10 9 9
3 7 4 3 1 6 9 7 7 6 8 7 7 8 7 6 6 5 2 1 2 4 5 6 7 7 7 8 7 10 9 9 9 9 10 11 12 12 14 15 16 17 16 15 11 9 9 8 9
3 3 4 3 3 3 6 11 7 7 7 11 12 9 9 8 7 5 2 1 3 4 5 6 7 7 7 7 7 8 8 9 9 9 10 11 11 13 14 16 17 18 17 13 9 8 8 8 8
4 5 7 3 3 4 4 13 3 4 4 7 8 8 8 8 7 5 3 2 3 5 6 6 6 6 7 6 7 8 9 9 9 10 11 11 12 12 13 15 16 16 16 13 10 9 8 7 8
Wind_Direction
16 39 55 53 60 60 61 33 75 84 76 38 39 85 96 73 86 126 217 13 0 354 351 354 12 13 15 16 15 15 14 14 14 14 13 13 11 9 10 8 5 3 2 359 358 357 356 354 352
37 53 48 53 71 74 43 21 54 68 131 143 71 67 67 67 75 82 20 5 359 355 356 357 14 14 15 16 15 14 14 14 13 13 13 13 10 7 7 5 3 1 359 357 357 355 353 352 350
64 54 60 58 67 86 93 49 89 86 110 117 74 54 63 32 37 53 15 354 350 1 4 359 16 14 15 16 16 15 14 13 13 12 12 12 9 6 6 3 0 359 357 355 355 353 351 349 347
67 54 60 61 68 36 70 133 135 123 72 53 77 54 53 7 35 46 11 347 0 11 7 3 16 15 14 15 16 14 14 13 13 12 12 11 7 4 5 2 358 357 355 354 353 350 348 346 344
61 73 69 63 63 44 19 13 50 70 57 48 79 87 69 14 25 39 1 2 25 20 16 10 16 15 13 13 15 12 13 12 12 11 11 9 6 3 2 0 357 356 354 353 352 348 346 344 343
62 67 79 92 108 119 54 26 68 71 87 91 94 103 101 33 33 10 5 24 30 25 22 18 14 14 12 11 14 11 12 11 12 11 10 8 5 1 1 359 355 354 353 353 350 347 344 343 343
83 76 91 119 129 128 117 60 62 83 87 95 119 111 148 167 167 67 26 28 36 32 28 19 10 10 9 9 12 10 12 12 12 10 9 8 5 0 359 357 352 352 351 351 348 347 345 344 343
99 94 92 113 127 127 129 93 81 80 110 35 94 134 171 187 161 117 40 29 37 38 32 16 4 6 0 357 10 10 11 11 12 9 8 7 4 358 356 352 349 351 350 350 346 346 346 345 342
72 73 96 147 149 148 144 116 93 61 86 46 56 132 154 139 137 142 7 31 30 25 24 17 5 8 3 2 11 8 9 7 10 5 5 5 356 347 354 345 349 350 348 349 344 344 346 346 341
56 92 126 143 146 140 127 128 149 114 80 66 49 72 104 107 128 82 46 31 18 4 5 20 7 9 6 7 2 360 1 356 355 355 358 354 349 345 354 345 348 349 347 347 343 343 345 343 335
60 98 109 69 99 107 109 118 133 126 142 178 177 173 154 133 100 71 58 42 13 345 349 7 10 7 8 4 356 4 353 350 349 351 354 348 341 340 342 334 342 343 345 341 339 338 336 332 330
82 61 86 102 85 90 107 110 108 154 188 170 164 155 152 127 95 81 66 39 1 349 347 357 12 9 8 2 348 2 350 346 345 342 348 347 340 338 336 331 329 336 338 333 333 329 327 328 323
74 89 58 79 81 83 86 88 107 92 104 116 130 132 136 123 108 91 80 39 1 355 352 356 16 12 1 358 350 356 341 340 334 335 343 346 339 335 332 327 325 327 330 330 329 327 326 328 322
89 88 89 71 75 77 103 104 109 168 145 136 145 145 141 142 141 115 71 9 352 2 359 350 10 12 355 348 335 330 328 329 329 335 339 343 339 334 333 327 325 331 332 328 326 318 324 323 319
98 84 73 80 86 110 115 155 203 179 157 162 170 165 158 147 136 127 154 241 22 10 353 346 1 7 345 335 329 335 321 325 327 332 332 334 336 332 332 326 329 333 330 327 325 315 325 321 320
77 81 87 153 120 139 145 259 197 160 160 182 192 192 180 156 147 151 181 119 39 1 339 338 350 347 335 331 324 320 318 320 318 321 323 327 332 332 331 324 327 328 328 329 324 328 329 322 321
57 102 192 193 183 162 193 249 190 167 175 193 201 203 195 180 178 174 164 79 33 340 319 325 331 337 333 329 325 319 317 315 314 316 316 324 328 329 326 315 322 325 324 325 325 332 324 322 322
191 197 217 227 199 176 218 248 201 181 188 200 205 207 207 204 202 183 150 86 2 323 318 320 328 333 330 327 324 317 315 311 314 315 316 325 324 325 323 310 321 320 319 320 318 319 319 318 318
134 156 223 245 168 184 225 248 221 187 193 201 209 212 213 213 199 178 160 137 310 315 332 334 341 337 342 343 341 331 330 322 318 318 323 320 320 322 317 315 317 314 313 315 314 317 316 319 323
112 131 201 205 163 210 256 262 227 188 201 200 203 207 205 199 198 216 209 219 297 320 336 341 342 334 338 335 322 311 313 308 312 316 311 313 320 319 322 318 315 309 307 309 311 314 311 319 331
116 173 229 225 129 51 320 300 209 206 199 201 205 202 193 196 207 221 222 241 310 336 337 338 331 330 331 330 325 326 308 304 319 321 308 318 319 317 312 310 310 307 302 302 303 300 310 314 311
236 238 186 149 103 304 349 304 280 216 223 220 209 194 195 198 197 203 211 308 352 339 331 327 328 329 328 330 332 336 342 333 327 320 316 319 316 315 315 313 309 305 304 299 297 312 302 301 305
256 358 127 142 161 322 324 248 289 142 251 238 214 199 198 198 197 191 138 41 14 345 329 329 333 330 327 329 327 324 317 305 313 317 316 315 316 316 318 318 310 306 305 297 292 295 288 290 289
3 72 64 62 69 313 239 191 281 222 226 243 205 194 194 190 184 144 86 46 356 335 335 345 343 330 326 326 322 317 312 314 323 328 325 326 322 316 312 316 308 304 301 296 293 287 282 284 280
56 65 11 353 353 276 177 230 254 254 222 228 205 192 182 178 166 143 70 10 335 343 355 350 339 327 323 322 317 313 311 314 320 326 327 327 325 323 315 310 304 302 296 294 291 287 284 277 273
41 94 121 277 279 298 291 248 258 270 285 237 180 163 159 167 158 143 116 8 338 356 353 340 328 322 321 320 319 312 318 324 323 321 321 318 317 314 308 310 307 302 297 295 290 287 281 276 273
95 92 130 142 301 287 282 283 299 148 223 153 153 155 172 173 162 149 136 47 6 355 338 327 321 320 317 319 321 325 334 328 323 320 316 313 312 313 317 312 309 307 303 297 289 280 277 277 277
70 141 99 109 320 297 294 284 267 253 236 216 205 195 187 172 159 151 153 41 4 341 322 321 318 312 310 317 327 342 331 324 322 321 318 317 314 315 316 317 317 317 317 312 299 284 277 277 279
128 116 111 112 159 209 292 277 227 227 222 214 211 194 182 175 166 164 168 55 354 331 322 317 314 311 313 319 323 326 323 323 323 321 319 318 317 320 322 324 326 328 330 329 322 310 293 286 286
173 176 154 167 221 200 234 270 255 216 232 216 201 177 171 163 157 160 145 42 339 322 315 313 311 311 313 319 325 325 323 323 323 322 321 321 322 324 327 330 332 336 341 344 346 341 338 328 324